TimeEDT,TemperatureF,Dew PointF,Humidity,Sea Level PressureIn,VisibilityMPH,Wind Direction,Wind SpeedMPH,Gust SpeedMPH,PrecipitationIn,Events,Conditions,WindDirDegrees,DateUTC
12:52 AM,72.0,71.1,97,29.81,7.0,WSW,5.8,-,N/A,,Clear,250,2013-07-23 04:52:00
1:52 AM,71.1,71.1,100,29.83,5.0,West,5.8,-,N/A,,Clear,270,2013-07-23 05:52:00
2:52 AM,71.1,71.1,100,29.83,6.0,West,5.8,-,N/A,,Partly Cloudy,260,2013-07-23 06:52:00
3:52 AM,70.0,70.0,100,29.83,6.0,West,5.8,-,N/A,,Clear,260,2013-07-23 07:52:00
4:52 AM,70.0,70.0,100,29.81,5.0,West,3.5,-,N/A,,Partly Cloudy,260,2013-07-23 08:52:00
5:52 AM,69.1,69.1,100,29.82,5.0,SW,3.5,-,N/A,,Clear,230,2013-07-23 09:52:00
6:52 AM,69.1,69.1,100,29.81,3.0,South,6.9,-,N/A,Fog,Scattered Clouds,190,2013-07-23 10:52:00
7:52 AM,71.1,71.1,100,29.81,6.0,SSW,5.8,-,N/A,,Partly Cloudy,210,2013-07-23 11:52:00
8:52 AM,73.0,72.0,96,29.81,8.0,SSW,6.9,-,N/A,,Partly Cloudy,210,2013-07-23 12:52:00
9:52 AM,77.0,73.0,88,29.81,9.0,WSW,8.1,-,N/A,,Scattered Clouds,240,2013-07-23 13:52:00
10:52 AM,80.1,73.9,81,29.81,9.0,SW,9.2,-,N/A,,Scattered Clouds,230,2013-07-23 14:52:00
11:14 AM,82.4,75.2,79,29.85,9.0,SW,8.1,-,N/A,,Mostly Cloudy,230,2013-07-23 15:14:00
11:52 AM,81.0,73.9,79,29.83,8.0,WSW,12.7,-,N/A,,Mostly Cloudy,240,2013-07-23 15:52:00
12:52 PM,82.0,73.9,76,29.82,8.0,SW,12.7,-,N/A,,Mostly Cloudy,220,2013-07-23 16:52:00
1:52 PM,84.0,73.9,72,29.79,9.0,SW,8.1,16.1,N/A,,Scattered Clouds,230,2013-07-23 17:52:00
2:52 PM,86.0,73.9,67,29.76,10.0,WSW,10.4,17.3,0.00,,Scattered Clouds,240,2013-07-23 18:52:00
3:52 PM,82.9,73.9,74,29.75,10.0,SW,8.1,-,N/A,,Overcast,230,2013-07-23 19:52:00
4:52 PM,82.0,75.0,79,29.75,9.0,West,10.4,16.1,0.00,,Mostly Cloudy,260,2013-07-23 20:52:00
5:52 PM,84.0,73.0,69,29.75,10.0,Variable,3.5,-,N/A,,Mostly Cloudy,0,2013-07-23 21:52:00
6:52 PM,84.0,73.0,69,29.74,10.0,West,9.2,18.4,N/A,,Scattered Clouds,260,2013-07-23 22:52:00
7:52 PM,82.0,73.0,74,29.73,10.0,WSW,9.2,-,N/A,,Mostly Cloudy,250,2013-07-23 23:52:00
8:52 PM,80.1,72.0,76,29.73,10.0,WSW,4.6,-,N/A,,Mostly Cloudy,250,2013-07-24 00:52:00
9:52 PM,79.0,71.1,77,29.76,10.0,NNW,6.9,-,N/A,,Mostly Cloudy,330,2013-07-24 01:52:00
10:52 PM,75.9,69.1,79,29.79,10.0,North,17.3,23.0,N/A,,Scattered Clouds,350,2013-07-24 02:52:00
11:52 PM,73.0,66.9,81,29.82,10.0,NNW,13.8,-,N/A,,Mostly Cloudy,340,2013-07-24 03:52:00